This demonstration page uses our WeatherBlox Daily Observations layout. Learn more.

Left ArrowRight Arrow

40.92501, -98.34201

Hourly Observations for September 30, 2022

Temp ( °F °C ) Dew Point ( °F °C ) Humidity (%) Winds ( mph kmh ) Pressure ( in mb ) Visibility ( mi km ) Precip ( " mm )
12:53 am 00:53 Clear 59 15 45 7.2 60 60 SSE 12 19 30.09 1019 10 16 0.00 0.00
1:53 am 01:53 Clear 58 14.4 44 6.7 60 60 SSE 12 19 30.06 1018 10 16 0.00 0.00
2:53 am 02:53 Clear 58 14.4 43 6.1 57 57 SSE 14 22 30.06 1018 10 16 0.00 0.00
3:53 am 03:53 Clear 59 15 41 5 51 51 SSE 14 22 30.05 1018 10 16 0.00 0.00
4:53 am 04:53 Clear 58 14.4 41 5 53 53 SSE 16 26 30.03 1017 10 16 0.00 0.00
5:53 am 05:53 Clear 57 13.9 41 5 55 55 SSE 12 19 30.03 1017 10 16 0.00 0.00
6:53 am 06:53 Clear 55 12.8 40 4.4 57 57 SSE 8 13 30.05 1018 10 16 0.00 0.00
7:53 am 07:53 Sunny 55 12.8 40 4.4 57 57 SSE 12 19 30.04 1017 10 16 0.00 0.00
8:53 am 08:53 Sunny 58 14.4 41 5 53 53 SSE 14 22 30.04 1017 10 16 0.00 0.00
9:53 am 09:53 Sunny 65 18.3 43 6.1 45 45 S 16 26 30.03 1017 10 16 0.00 0.00
10:53 am 10:53 Sunny 70 21.1 44 6.7 39 39 S 20 31 30.03 1017 10 16 0.00 0.00
11:53 am 11:53 Sunny 75 23.9 45 7.2 34 34 S 18 30 30.00 1016 10 16 0.00 0.00
12:53 pm 12:53 Sunny 79 26.1 46 7.8 31 31 SSE 17 28 29.98 1015 10 16 0.00 0.00
1:53 pm 13:53 Sunny 83 28.3 47 8.3 28 28 SSE 18 30 29.96 1014 10 16 0.00 0.00
2:53 pm 14:53 Sunny 83 28.3 48 8.9 30 30 SSE 16 26 29.94 1014 10 16 0.00 0.00
3:53 pm 15:53 Sunny 81 27.2 47 8.3 30 30 SSE 18 30 29.93 1014 10 16 0.00 0.00
4:53 pm 16:53 Sunny 79 26.1 48 8.9 34 34 SSE 17 28 29.91 1013 10 16 0.00 0.00
5:53 pm 17:53 Sunny 81 27.2 49 9.4 33 33 SSE 18 30 29.91 1013 10 16 0.00 0.00
6:53 pm 18:53 Sunny 77 25 49 9.4 37 37 SSE 17 28 29.92 1013 10 16 0.00 0.00
7:53 pm 19:53 Clear 74 23.3 48 8.9 40 40 SSE 14 22 29.95 1014 10 16 0.00 0.00
8:53 pm 20:53 Clear 72 22.2 48 8.9 43 43 SSE 15 24 29.96 1015 10 16 0.00 0.00
9:53 pm 21:53 Clear 70 21.1 47 8.3 44 44 SSE 16 26 29.97 1015 10 16 0.00 0.00
10:53 pm 22:53 Clear 69 20.6 46 7.8 44 44 SSE 18 30 29.97 1015 10 16 0.00 0.00
11:53 pm 23:53 Clear 66 18.9 46 7.8 48 48 SSE 18 30 29.98 1015 10 16 0.00 0.00

Powered by AerisWeather